Location: Unspecified
(50.7693°N, 0.0000°E)
Time: 04:46:14
(UTC+00:00)

A-11 Canister half - Pass Details

Date: 27 June 2019
Orbit: 1526 x 1683 km, 47.3° (Epoch: 21 August)

Event Time Altitude Azimuth Distance (km) Brightness Sun altitude
Rises 11:19:23 0° 282° (WNW) 4,681 11.4 61.3°
Reaches altitude 10° 11:25:36 10° 252° (WSW) 3,697 11.2 61.6°
Maximum altitude 11:27:55 11° 237° (WSW) 3,610 11.2 61.7°
Drops below altitude 10° 11:30:15 10° 222° (SW) 3,705 11.4 61.8°
Sets 11:36:34 0° 191° (S) 4,709 11.9 62.1°
